Scottsbluff, NE

10:50 PM MDT on October 14, 2019 (GMT -0600)
Heilig

Weather History for KBFF - June, 2019

Change the Weather History Date:

Saturday, June 1, 2019

  Actual Average Record
Temperature  
Mean Temperature 62 °F -  
Max Temperature 75 °F 74 °F 98 °F (1940)
Min Temperature 48 °F 47 °F 33 °F (1951)
Degree Days  
Heating Degree Days 4    
Growing Degree Days 12 (Base 50)    
Moisture  
Dew Point 51 °F    
Average Humidity 67    
Maximum Humidity 93    
Minimum Humidity 41    
Precipitation  
Precipitation 0.00 in - - ()
Sea Level Pressure  
Sea Level Pressure 29.97 in    
Wind  
Wind Speed 5 mph (ESE)    
Max Wind Speed 10 mph    
Max Gust Speed -    
Visibility 10 miles    
Events      
Averages and records for this station are not official NWS values.
T = Trace of Precipitation, MM = Missing Value Source: NWS Daily Summary

Daily Weather History Graph

Daily Weather History Graph

Search for Another Location

Airport or City:

Astronomy

Jun. 01, 2019 Rise Set
Actual Time 5:21 AM MDT 8:23 PM MDT
Civil Twilight 4:48 AM MDT 8:56 PM MDT
Nautical Twilight 4:05 AM MDT 9:39 PM MDT
Astronomical Twilight 3:15 AM MDT 10:29 PM MDT
Moon 4:30 AM MDT (6/1) 6:36 PM MDT (6/1)
Length of Visible Light 16h 08m
Length of Day
15h 01m
Waning Crescent, 3% of the Moon is Illuminated
Jun 1
Waning Crescent
Jun 3
New
Jun 10
First Quarter
Jun 17
Full
Jun 25
Last Quarter

Hourly Weather History & Observations

Time (MDT) Temp. Dew Point Humidity Pressure Visibility Wind Dir Wind Speed Gust Speed Precip Events Conditions
12:53 AM 57.0 °F 50.0 °F 77% 29.99 in 10.0 mi North 4.6 mph - N/A   Clear
1:53 AM 57.0 °F 48.0 °F 72% 29.96 in 10.0 mi NNE 8.1 mph - N/A   Partly Cloudy
2:53 AM 51.1 °F 46.9 °F 86% 29.99 in 10.0 mi West 5.8 mph - N/A   Clear
3:53 AM 50.0 °F 46.9 °F 89% 29.98 in 10.0 mi Calm Calm - N/A   Clear
4:53 AM 51.1 °F 46.9 °F 86% 29.99 in 10.0 mi North - - N/A   Clear
5:53 AM 48.9 °F 46.9 °F 93% 30.01 in 10.0 mi Calm Calm - N/A   Clear
6:53 AM 55.9 °F 51.1 °F 84% 30.00 in 10.0 mi Calm Calm - N/A   Clear
7:53 AM 59.0 °F 53.1 °F 81% 30.02 in 10.0 mi Calm Calm - N/A   Clear
8:53 AM 62.1 °F 50.0 °F 65% 30.04 in 10.0 mi Variable 3.5 mph - N/A   Clear
9:53 AM 64.0 °F 51.1 °F 63% 30.03 in 10.0 mi Variable 3.5 mph - N/A   Clear
10:53 AM 66.9 °F 53.1 °F 61% 30.02 in 10.0 mi SSE 3.5 mph - N/A   Clear
11:53 AM 70.0 °F 53.1 °F 55% 30.00 in 10.0 mi SE 5.8 mph - N/A   Clear
12:53 PM 72.0 °F 52.0 °F 49% 29.99 in 10.0 mi Variable 3.5 mph - N/A   Clear
1:53 PM 73.0 °F 54.0 °F 51% 29.96 in 10.0 mi Variable 4.6 mph - N/A   Clear
2:53 PM 73.9 °F 53.1 °F 48% 29.95 in 10.0 mi SSE 6.9 mph - N/A   Clear
3:53 PM 73.0 °F 53.1 °F 49% 29.94 in 10.0 mi East 5.8 mph - N/A   Clear
4:53 PM 73.9 °F 54.0 °F 50% 29.93 in 10.0 mi ESE 8.1 mph - N/A   Clear
5:53 PM 73.0 °F 54.0 °F 51% 29.94 in 10.0 mi SSE 10.4 mph - N/A   Clear
6:53 PM 72.0 °F 53.1 °F 51% 29.91 in 10.0 mi ESE 10.4 mph - N/A   Clear
7:53 PM 70.0 °F 52.0 °F 53% 29.90 in 10.0 mi SE 10.4 mph - N/A   Clear
8:53 PM 62.1 °F 52.0 °F 70% 29.92 in 10.0 mi SSE 6.9 mph - N/A   Clear
9:53 PM 60.1 °F 50.0 °F 69% 29.94 in 10.0 mi ESE 4.6 mph - N/A   Clear
10:53 PM 55.0 °F 50.0 °F 83% 29.95 in 10.0 mi East 5.8 mph - N/A   Clear
11:53 PM 55.0 °F 51.1 °F 86% 29.95 in 10.0 mi East 6.9 mph - N/A   Clear